Marietta McCollum Field, GA

4:24 AM EST on December 07, 2019 (GMT -0500)
Cobb County-McCollum

Weather History for KRYY - November, 2019

Change the Weather History Date:

Wednesday, November 13, 2019

  Actual Average (KMGE) Record (KMGE)
Temperature  
Mean Temperature 34 °F -  
Max Temperature 46 °F 59 °F 75 °F (2007)
Min Temperature 21 °F 41 °F 26 °F (2013)
Degree Days  
Heating Degree Days 32    
Moisture  
Dew Point 18 °F    
Average Humidity 59    
Maximum Humidity 88    
Minimum Humidity 28    
Precipitation  
Precipitation 0.04 in - - ()
Sea Level Pressure  
Sea Level Pressure 29.67 in    
Wind  
Wind Speed 4 mph ()    
Max Wind Speed 12 mph    
Max Gust Speed 20 mph    
Visibility 10.0 miles    
Events      
Averages and records for this station are not official NWS values.
T = Trace of Precipitation, MM = Missing Value Source: Averaged Metar Reports

Daily Weather History Graph

Daily Weather History Graph

Search for Another Location

Airport or City:

Astronomy

Nov. 13, 2019 Rise Set
Actual Time 7:08 AM EST 5:36 PM EST
Civil Twilight 6:42 AM EST 6:02 PM EST
Nautical Twilight 6:12 AM EST 6:32 PM EST
Astronomical Twilight 5:42 AM EST 7:02 PM EST
Moon 6:40 PM EST (11/13) 8:00 AM EST (11/13)
Length of Visible Light 11h 20m
Length of Day
10h 27m
Full, 99% of the Moon is Illuminated
Nov 13
Full
Nov 19
Last Quarter
Nov 26
New
Dec 4
First Quarter
Dec 12
Full

Hourly Weather History & Observations

Time (EST) Temp. Windchill Dew Point Humidity Pressure Visibility Wind Dir Wind Speed Gust Speed Precip Events Conditions
12:50 AM 23.0 °F 15.8 °F 17.1 °F 78% 30.28 in 10.0 mi NW 5.8 mph - N/A   Clear
1:50 AM 21.9 °F 17.2 °F 16.0 °F 78% 30.27 in 10.0 mi WNW 3.5 mph - 0.01 in   Clear
2:50 AM 21.9 °F 17.2 °F 17.1 °F 82% 30.28 in 10.0 mi WNW 3.5 mph - N/A   Clear
3:50 AM 21.0 °F - 17.1 °F 85% 30.28 in 10.0 mi Calm Calm - N/A   Clear
4:50 AM 21.0 °F - 18.0 °F 88% 30.29 in 10.0 mi Calm Calm - N/A   Clear
5:50 AM 21.0 °F 16.2 °F 18.0 °F 88% 29.49 in 10.0 mi WNW 3.5 mph - N/A   Clear
6:50 AM 21.0 °F - 18.0 °F 88% 29.50 in 10.0 mi Calm Calm - N/A   Clear
7:50 AM 23.0 °F - 19.9 °F 88% 29.53 in 10.0 mi Calm Calm - N/A   Clear
8:50 AM 27.0 °F 23.0 °F 21.0 °F 78% 29.54 in 10.0 mi Variable 3.5 mph - N/A   Clear
9:50 AM 32.0 °F 24.2 °F 21.0 °F 64% 29.55 in 10.0 mi ESE 9.2 mph 18.4 mph N/A   Clear
11:50 AM 39.0 °F 35.7 °F 18.0 °F 43% 29.52 in 10.0 mi East 4.6 mph 18.4 mph N/A   Clear
12:50 PM 42.1 °F 36.1 °F 15.1 °F 34% 29.48 in 10.0 mi ESE 10.4 mph 19.6 mph N/A   Clear
1:50 PM 44.1 °F 39.0 °F 16.0 °F 32% 29.46 in 10.0 mi East 9.2 mph - N/A   Clear
2:50 PM 46.0 °F 41.4 °F 15.1 °F 29% 29.44 in 10.0 mi East 9.2 mph - N/A   Clear
3:50 PM 46.0 °F 43.1 °F 14.0 °F 28% 29.46 in 10.0 mi ESE 5.8 mph - N/A   Clear
5:50 PM 42.1 °F 38.4 °F 15.1 °F 34% 29.47 in 10.0 mi East 5.8 mph - 0.01 in   Clear
6:50 PM 39.9 °F 35.8 °F 17.1 °F 40% 29.48 in 10.0 mi East 5.8 mph - 0.01 in   Clear
7:50 PM 37.9 °F 32.1 °F 18.0 °F 45% 29.47 in 10.0 mi East 8.1 mph - N/A   Clear
8:50 PM 37.0 °F 31.0 °F 19.0 °F 48% 29.48 in 10.0 mi East 8.1 mph - N/A   Clear
9:50 PM 36.0 °F 28.0 °F 19.9 °F 52% 29.47 in 10.0 mi East 11.5 mph - 0.01 in   Clear
10:50 PM 36.0 °F 28.5 °F 19.0 °F 50% 29.48 in 10.0 mi East 10.4 mph 18.4 mph N/A   Clear
11:50 PM 36.0 °F 31.1 °F 19.9 °F 52% 29.49 in 10.0 mi Variable 5.8 mph - N/A   Clear